Weather History for Thermal, CA

Change the Weather History Date:

Saturday, April 27, 2013

  Actual Average Record
Temperature  
Mean Temperature 82 °F 73 °F  
Max Temperature 104 °F 90 °F 106 °F (1996)
Min Temperature 60 °F 57 °F 44 °F (1994)
Degree Days  
Heating Degree Days 0 0  
Month to date heating degree days 2 19  
Since 1 July heating degree days 1124 1176  
Cooling Degree Days 17 9  
Month to date cooling degree days 203 156  
Year to date cooling degree days 365 230  
Growing Degree Days 33 (Base 50)    
Moisture  
Dew Point 31 °F    
Average Humidity 26    
Maximum Humidity 48    
Minimum Humidity 3    
Precipitation  
Precipitation 0.00 in 0.00 in 0.02 in (1952)
Month to date precipitation 0.00 0.06  
Year to date precipitation 0.44 1.77  
Since 1 July precipitation 2.62 3.15  
Snow  
Snow 0.00 in - - ()
Month to date snowfall 0.0  
Year to date snowfall 0.0  
Since 1 July snowfall 0.0  
Snow Depth 0.00 in    
Sea Level Pressure  
Sea Level Pressure 29.93 in    
Wind  
Wind Speed 7 mph (NNW)    
Max Wind Speed 14 mph    
Max Gust Speed 17 mph    
Visibility 10 miles    
Events      
T = Trace of Precipitation, MM = Missing Value Source: NWS Daily Summary

Daily Weather History Graph

Daily Weather History Graph

Search for Another Location

Airport:

Trip Planner

Search our weather history database for the weather conditions in past years. The results will help you decide how hot, cold, wet, or windy it might be!

Date:

Astronomy

Apr. 27, 2013 Rise Set
Actual Time 5:59 AM PDT 7:25 PM PDT
Civil Twilight 5:33 AM PDT 7:51 PM PDT
Nautical Twilight 5:02 AM PDT 8:22 PM PDT
Astronomical Twilight 4:29 AM PDT 8:55 PM PDT
Moon 9:53 PM PDT (4/27) 7:27 AM PDT (4/27)
Length of Visible Light 14h 17m
Length of Day
13h 25m
Waning Gibbous, 95% of the Moon is Illuminated
Apr 27
Waning Gibbous
May 2
Last Quarter
May 9
New
May 17
First Quarter
May 24
Full

Hourly Weather History & Observations

Time (PDT) Temp. Dew Point Humidity Pressure Visibility Wind Dir Wind Speed Gust Speed Precip Events Conditions
12:52 AM 75.9 °F 46.9 °F 36% 30.01 in 10.0 mi NW 10.4 mph - N/A   Clear
1:52 AM 73.9 °F 46.9 °F 38% 29.99 in 10.0 mi NW 6.9 mph - N/A   Clear
2:52 AM 75.0 °F 46.0 °F 36% 29.98 in 10.0 mi NNW 11.5 mph - N/A   Clear
3:52 AM 68.0 °F 46.0 °F 45% 29.99 in 10.0 mi ENE 5.8 mph - N/A   Clear
4:52 AM 64.9 °F 45.0 °F 48% 30.01 in 10.0 mi Calm Calm - N/A   Clear
5:52 AM 66.9 °F 43.0 °F 42% 30.01 in 10.0 mi North 6.9 mph - N/A   Clear
6:52 AM 66.9 °F 42.1 °F 40% 30.00 in 10.0 mi North 4.6 mph - N/A   Clear
7:52 AM 75.9 °F 44.1 °F 32% 30.00 in 10.0 mi NW 3.5 mph - N/A   Clear
8:52 AM 84.9 °F 39.0 °F 20% 30.00 in 10.0 mi North 9.2 mph - N/A   Clear
9:52 AM 90.0 °F 37.0 °F 15% 30.02 in 10.0 mi North 8.1 mph - N/A   Clear
10:52 AM 97.0 °F 28.0 °F 9% 29.98 in 10.0 mi Variable 5.8 mph - N/A   Clear
11:52 AM 100.0 °F 19.9 °F 6% 29.96 in 10.0 mi WSW 8.1 mph - N/A   Clear
12:52 PM 100.9 °F 12.0 °F 4% 29.93 in 10.0 mi Variable 5.8 mph - N/A   Clear
1:52 PM 102.0 °F 14.0 °F 4% 29.91 in 10.0 mi East 9.2 mph 16.1 mph N/A   Clear
2:52 PM 102.9 °F 7.0 °F 4% 29.88 in 10.0 mi NE 5.8 mph - N/A   Clear
3:52 PM 102.9 °F 8.1 °F 4% 29.85 in 10.0 mi WNW 9.2 mph - N/A   Clear
4:52 PM 102.0 °F 7.0 °F 4% 29.83 in 10.0 mi West 4.6 mph - N/A   Clear
5:52 PM 100.9 °F 10.9 °F 4% 29.82 in 10.0 mi West 4.6 mph - N/A   Clear
6:52 PM 93.9 °F 34.0 °F 12% 29.81 in 10.0 mi Calm Calm - N/A   Clear
7:52 PM 88.0 °F 35.1 °F 15% 29.82 in 10.0 mi Calm Calm - N/A   Clear
9:52 PM 87.1 °F 28.9 °F 12% 29.85 in 10.0 mi NNW 9.2 mph - N/A   Clear
10:52 PM 84.9 °F 28.9 °F 13% 29.84 in 10.0 mi NNW 8.1 mph - N/A   Clear
11:52 PM 82.9 °F 32.0 °F 16% 29.84 in 10.0 mi NW 9.2 mph - N/A   Clear